Back to catalog

METEOSAT 4

MOP 1

AliveWeatherGEO
NORAD 19876·PAYLOAD·🇪🇺 EU

Launched Mar 6, 1989 from Guiana Space Centre

Loading…

TLE

FreshSource: Space-Track

Epoch: Sep 14, 2026, 11:35 UTC

1 19876U 89020B   26257.48298904 -.00000122  00000-0  00000-0 0  9992
2 19876  14.8391 345.7110 0022924 213.5939 174.3964  0.97109701113802

Track METEOSAT 4 in real time with AllMySat

Download on the App Store